KC7O Weather Reports


Display with metric or nautical units.
time (UTC)temp
F
wind
direction
speed
MPH
gust
MPH
rain 1hr
in
rain 24hr
in
rain mn
in
humidity
%
barometer
mb
20260509230855 82 266 2.0 5.0 0.00 0.00 0.00 54 1009.5
20260509230359 82 223 3.0 5.0 0.00 0.00 0.00 54 1009.5
20260509225907 82 217 2.0 7.0 0.00 0.00 0.00 54 1009.5
20260509225353 82 198 3.0 7.0 0.00 0.00 0.00 54 1009.5
20260509224900 82 160 3.0 8.0 0.00 0.00 0.00 53 1009.6
20260509223907 82 172 3.0 6.0 0.00 0.00 0.00 53 1009.8
20260509223411 82 212 2.0 6.0 0.00 0.00 0.00 52 1009.8
20260509222857 83 262 2.0 5.0 0.00 0.00 0.00 52 1009.8
20260509222401 83 133 1.0 5.0 0.00 0.00 0.00 52 1009.9
20260509221906 83 211 1.0 5.0 0.00 0.00 0.00 53 1010.0
20260509221355 82 271 2.0 6.0 0.00 0.00 0.00 53 1010.0
20260509220859 82 181 1.0 6.0 0.00 0.00 0.00 54 1010.1
20260509220404 82 194 2.0 7.0 0.00 0.00 0.00 53 1010.1
20260509215910 82 248 3.0 7.0 0.00 0.00 0.00 53 1010.2
20260509215415 82 207 2.0 5.0 0.00 0.00 0.00 53 1010.2
20260509214900 82 177 3.0 7.0 0.00 0.00 0.00 54 1010.3
20260509214406 81 137 3.0 7.0 0.00 0.00 0.00 54 1010.3
20260509213912 82 162 1.0 4.0 0.00 0.00 0.00 54 1010.4
20260509213353 82 185 2.0 5.0 0.00 0.00 0.00 54 1010.5
20260509212859 82 234 1.0 5.0 0.00 0.00 0.00 54 1010.5
20260509212404 82 193 2.0 7.0 0.00 0.00 0.00 54 1010.5
20260509211417 82 249 3.0 5.0 0.00 0.00 0.00 55 1010.6
20260509210858 82 150 2.0 4.0 0.00 0.00 0.00 55 1010.6
20260509210359 82 175 2.0 6.0 0.00 0.00 0.00 55 1010.6
20260509205904 81 229 3.0 6.0 0.00 0.00 0.00 55 1010.7
20260509205411 82 164 2.0 4.0 0.00 0.00 0.00 55 1010.8
20260509204858 81 219 2.0 4.0 0.00 0.00 0.00 56 1010.9
20260509204422 81 157 1.0 5.0 0.00 0.00 0.00 57 1011.0
20260509203907 81 171 2.0 5.0 0.00 0.00 0.00 57 1011.0
20260509203353 80 143 3.0 6.0 0.00 0.00 0.00 57 1011.1
20260509202856 80 178 2.0 6.0 0.00 0.00 0.00 58 1011.1
20260509202402 80 134 3.0 5.0 0.00 0.00 0.00 57 1011.1
20260509201906 80 158 3.0 6.0 0.00 0.00 0.00 57 1011.1
20260509201355 81 269 1.0 6.0 0.00 0.00 0.00 58 1011.1
20260509200920 80 162 2.0 6.0 0.00 0.00 0.00 58 1011.1
20260509200401 79 153 2.0 7.0 0.00 0.00 0.00 59 1011.2
20260509195908 80 94 3.0 7.0 0.00 0.00 0.00 58 1011.2
20260509195453 80 231 2.0 4.0 0.00 0.00 0.00 58 1011.2
20260509194911 79 192 2.0 8.0 0.00 0.00 0.00 60 1011.3
20260509194357 79 170 3.0 8.0 0.00 0.00 0.00 59 1011.3
20260509193901 79 191 3.0 6.0 0.00 0.00 0.00 59 1011.3
20260509193407 79 150 2.0 5.0 0.00 0.00 0.00 60 1011.4
20260509192911 78 275 1.0 4.0 0.00 0.00 0.00 60 1011.5
20260509192357 78 274 1.0 5.0 0.00 0.00 0.00 61 1011.6
20260509191905 78 256 2.0 5.0 0.00 0.00 0.00 61 1011.7
20260509191411 77 232 3.0 5.0 0.00 0.00 0.00 62 1011.6
20260509190856 77 212 2.0 6.0 0.00 0.00 0.00 63 1011.7
20260509190401 77 160 3.0 6.0 0.00 0.00 0.00 62 1011.7
20260509185907 77 134 2.0 7.0 0.00 0.00 0.00 61 1011.7
20260509185413 77 193 3.0 7.0 0.00 0.00 0.00 63 1011.8
20260509184857 76 218 3.0 6.0 0.00 0.00 0.00 63 1011.9
20260509184423 76 188 2.0 6.0 0.00 0.00 0.00 62 1011.9
20260509183906 76 123 2.0 5.0 0.00 0.00 0.00 64 1011.8
20260509183353 76 182 2.0 5.0 0.00 0.00 0.00 63 1011.9
20260509182859 76 203 1.0 4.0 0.00 0.00 0.00 64 1011.9
20260509181857 75 218 2.0 5.0 0.00 0.00 0.00 65 1011.9
20260509181403 74 280 2.0 5.0 0.00 0.00 0.00 66 1012.0
20260509180906 74 242 2.0 5.0 0.00 0.00 0.00 66 1012.1
20260509180411 74 244 2.0 5.0 0.00 0.00 0.00 65 1012.2
20260509175916 74 265 2.0 5.0 0.00 0.00 0.00 66 1012.1
20260509175400 74 175 1.0 4.0 0.00 0.00 0.00 67 1012.0
20260509174906 73 139 2.0 6.0 0.00 0.00 0.00 68 1012.1
20260509174430 73 165 2.0 6.0 0.00 0.00 0.00 68 1012.0
20260509173900 73 220 1.0 5.0 0.00 0.00 0.00 68 1012.0
20260509173403 73 147 1.0 3.0 0.00 0.00 0.00 68 1012.0
20260509172905 72 236 2.0 3.0 0.00 0.00 0.00 68 1012.0
20260509172411 72 223 1.0 5.0 0.00 0.00 0.00 70 1012.0
20260509171853 71 131 0.0 5.0 0.00 0.00 0.00 69 1012.1
20260509171358 71 189 1.0 4.0 0.00 0.00 0.00 69 1012.0
20260509170903 71 280 1.0 4.0 0.00 0.00 0.00 70 1012.0
20260509170407 71 177 1.0 4.0 0.00 0.00 0.00 71 1011.9
20260509165933 71 247 2.0 4.0 0.00 0.00 0.00 70 1011.9
20260509165413 70 253 1.0 3.0 0.00 0.00 0.00 72 1011.9
20260509164921 70 248 1.0 3.0 0.00 0.00 0.00 72 1012.0
20260509164411 69 169 0.0 4.0 0.00 0.00 0.00 73 1011.9
20260509163856 69 155 1.0 4.0 0.00 0.00 0.00 74 1011.9
20260509163358 69 224 0.0 3.0 0.00 0.00 0.00 74 1011.9
20260509162921 68 190 1.0 4.0 0.00 0.00 0.00 74 1011.9
20260509162408 68 170 1.0 4.0 0.00 0.00 0.00 76 1011.9
20260509161914 68 168 1.0 3.0 0.00 0.00 0.00 75 1012.0
20260509161417 68 238 0.0 0.0 0.00 0.00 0.00 76 1012.0
20260509160901 67 150 0.0 0.0 0.00 0.00 0.00 78 1012.1
20260509160424 67 139 0.0 0.0 0.00 0.00 0.00 77 1012.1
20260509155929 67 150 0.0 0.0 0.00 0.00 0.00 78 1012.1
20260509155352 66 157 0.0 0.0 0.00 0.00 0.00 79 1012.2
20260509154859 65 178 0.0 0.0 0.00 0.00 0.00 81 1012.2
20260509154404 64 209 0.0 0.0 0.00 0.00 0.00 83 1012.2
20260509153906 64 268 0.0 0.0 0.00 0.00 0.00 83 1012.2
20260509153430 63 283 0.0 0.0 0.00 0.00 0.00 85 1012.2
20260509152855 63 277 0.0 0.0 0.00 0.00 0.00 84 1012.3
20260509152359 63 298 0.0 0.0 0.00 0.00 0.00 85 1012.3
20260509151903 63 263 0.0 0.0 0.00 0.00 0.00 88 1012.3
20260509151406 62 263 0.0 0.0 0.00 0.00 0.00 89 1012.2
20260509150909 61 269 0.0 0.0 0.00 0.00 0.00 90 1012.2
20260509150407 60 269 0.0 0.0 0.00 0.00 0.00 91 1012.2
20260509145855 60 259 0.0 0.0 0.00 0.00 0.00 91 1012.3
20260509145357 59 259 0.0 0.0 0.00 0.00 0.00 92 1012.2
20260509144924 59 259 0.0 0.0 0.00 0.00 0.00 91 1012.2
20260509144409 59 257 0.0 0.0 0.00 0.00 0.00 91 1012.2
20260509143855 59 257 0.0 0.0 0.00 0.00 0.00 92 1012.2
20260509143401 59 257 0.0 0.0 0.00 0.00 0.00 92 1012.2
20260509142907 59 257 0.0 0.0 0.00 0.00 0.00 92 1012.2
20260509142352 59 237 0.0 0.0 0.00 0.00 0.00 92 1012.2
20260509141856 59 237 0.0 0.0 0.00 0.00 0.00 92 1012.2
20260509141401 59 234 0.0 0.0 0.00 0.00 0.00 92 1012.2
20260509140925 59 221 0.0 0.0 0.00 0.00 0.00 92 1012.2
20260509140352 59 171 0.0 0.0 0.00 0.00 0.00 93 1012.1
20260509135858 58 160 0.0 0.0 0.00 0.00 0.00 93 1012.1
20260509135402 58 160 0.0 0.0 0.00 0.00 0.00 93 1012.0
20260509134908 58 160 0.0 0.0 0.00 0.00 0.00 93 1012.0
20260509134354 58 160 0.0 0.0 0.00 0.00 0.00 93 1011.9
20260509133900 58 160 0.0 0.0 0.00 0.00 0.00 93 1011.9
20260509133405 58 160 0.0 0.0 0.00 0.00 0.00 93 1011.9
20260509132910 58 160 0.0 0.0 0.00 0.00 0.00 93 1011.8
20260509132355 58 236 0.0 0.0 0.00 0.00 0.00 93 1011.7
20260509131921 58 236 0.0 0.0 0.00 0.00 0.00 93 1011.7
20260509131425 58 236 0.0 0.0 0.00 0.00 0.00 94 1011.7
20260509130909 58 252 0.0 0.0 0.00 0.00 0.00 94 1011.7
20260509130359 58 252 0.0 0.0 0.00 0.00 0.00 94 1011.7
20260509125906 58 231 0.0 0.0 0.00 0.00 0.00 94 1011.7
20260509125351 58 146 0.0 0.0 0.00 0.00 0.00 94 1011.7
20260509124857 58 146 0.0 0.0 0.00 0.00 0.00 94 1011.6
20260509124400 58 146 0.0 0.0 0.00 0.00 0.00 94 1011.6
20260509123904 58 146 0.0 0.0 0.00 0.00 0.00 94 1011.6
20260509123431 58 146 0.0 0.0 0.00 0.00 0.00 94 1011.5
20260509122913 58 146 0.0 0.0 0.00 0.00 0.00 94 1011.5
20260509122358 58 146 0.0 0.0 0.00 0.00 0.00 94 1011.6
20260509121902 58 150 0.0 0.0 0.00 0.00 0.00 94 1011.5
20260509121406 58 35 0.0 0.0 0.00 0.00 0.00 94 1011.5
20260509120911 58 35 0.0 0.0 0.00 0.00 0.00 94 1011.4
20260509115902 58 35 0.0 0.0 0.00 0.00 0.00 94 1011.6
20260509115426 58 52 0.0 0.0 0.00 0.00 0.00 94 1011.7
20260509114909 58 55 0.0 0.0 0.00 0.00 0.00 94 1011.6
20260509114355 58 32 0.0 0.0 0.00 0.00 0.00 94 1011.6
20260509113901 58 28 0.0 0.0 0.00 0.00 0.00 94 1011.6
20260509113428 58 28 0.0 0.0 0.00 0.00 0.00 94 1011.6
20260509112851 58 28 0.0 0.0 0.00 0.00 0.00 94 1011.6
20260509112357 57 18 0.0 0.0 0.00 0.00 0.00 94 1011.6
20260509111904 57 18 0.0 0.0 0.00 0.00 0.00 94 1011.5
20260509111409 57 18 0.0 0.0 0.00 0.00 0.00 93 1011.5
20260509110914 58 27 0.0 0.0 0.00 0.00 0.00 94 1011.5
20260509110403 58 23 0.0 0.0 0.00 0.00 0.00 94 1011.6
20260509105910 58 50 0.0 0.0 0.00 0.00 0.00 94 1011.6
20260509105354 57 50 0.0 0.0 0.00 0.00 0.00 93 1011.6
20260509104900 58 7 0.0 0.0 0.00 0.00 0.00 93 1011.6
20260509104406 58 28 0.0 0.0 0.00 0.00 0.00 93 1011.6
20260509103852 58 28 0.0 0.0 0.00 0.00 0.00 93 1011.7
20260509103415 58 10 0.0 0.0 0.00 0.00 0.00 93 1011.7
20260509102402 58 33 0.0 0.0 0.00 0.00 0.00 93 1011.7
20260509101908 58 32 0.0 0.0 0.00 0.00 0.00 93 1011.7
20260509101357 58 33 0.0 0.0 0.00 0.00 0.00 93 1011.7
20260509100924 58 33 0.0 0.0 0.00 0.00 0.00 93 1011.8
20260509100408 58 33 0.0 0.0 0.00 0.00 0.00 93 1011.8
20260509095853 58 33 0.0 0.0 0.00 0.00 0.00 93 1011.9
20260509095358 58 33 0.0 0.0 0.00 0.00 0.00 93 1011.9
20260509094905 58 39 0.0 0.0 0.00 0.00 0.00 93 1012.0
20260509094411 58 121 0.0 0.0 0.00 0.00 0.00 93 1012.0
20260509093855 58 118 0.0 0.0 0.00 0.00 0.00 93 1012.1
20260509093405 58 131 0.0 0.0 0.00 0.00 0.00 93 1012.1
20260509092908 58 131 0.0 0.0 0.00 0.00 0.00 93 1012.1
20260509092354 58 358 0.0 0.0 0.00 0.00 0.00 93 1012.1
20260509091905 58 358 0.0 1.0 0.00 0.00 0.00 93 1012.1
20260509091408 58 358 0.0 1.0 0.00 0.00 0.00 93 1012.0
20260509090853 58 358 0.0 1.0 0.00 0.00 0.00 93 1012.0
20260509090356 58 136 0.0 1.0 0.00 0.00 0.00 93 1012.1
20260509085901 58 143 0.0 0.0 0.00 0.00 0.00 93 1012.1
20260509085407 58 143 0.0 0.0 0.00 0.00 0.00 93 1012.2
20260509084852 57 143 0.0 0.0 0.00 0.00 0.00 93 1012.3
20260509084419 57 143 0.0 0.0 0.00 0.00 0.00 93 1012.3
20260509083923 57 143 0.0 0.0 0.00 0.00 0.00 93 1012.2
20260509083405 57 143 0.0 0.0 0.00 0.00 0.00 92 1012.3
20260509082930 57 143 0.0 0.0 0.00 0.00 0.00 92 1012.3
20260509082354 57 143 0.0 0.0 0.00 0.00 0.00 92 1012.4
20260509081858 57 143 0.0 0.0 0.00 0.00 0.00 92 1012.4
20260509081400 57 143 0.0 0.0 0.00 0.00 0.00 92 1012.4
20260509080925 57 143 0.0 0.0 0.00 0.00 0.00 91 1012.4
20260509080428 57 143 0.0 0.0 0.00 0.00 0.00 91 1012.4
20260509075855 58 143 0.0 0.0 0.00 0.00 0.00 91 1012.4
20260509075359 58 143 0.0 0.0 0.00 0.00 0.00 91 1012.4
20260509073854 58 143 0.0 0.0 0.00 0.00 0.00 91 1012.5
20260509073359 58 143 0.0 0.0 0.00 0.00 0.00 90 1012.5
20260509072905 58 143 0.0 0.0 0.00 0.00 0.00 90 1012.5
20260509072410 59 143 0.0 0.0 0.00 0.00 0.00 90 1012.6
20260509071914 59 143 0.0 0.0 0.00 0.00 0.00 90 1012.7
20260509071358 59 143 0.0 0.0 0.00 0.00 0.00 90 1012.7
20260509070903 59 143 0.0 0.0 0.00 0.00 0.00 90 1012.7
20260509070409 59 143 0.0 0.0 0.00 0.00 0.00 90 1012.8
20260509065854 59 143 0.0 1.0 0.00 0.00 0.00 90 1012.8
20260509065359 59 143 0.0 1.0 0.00 0.00 0.00 90 1012.8
20260509064905 59 143 0.0 1.0 0.00 0.00 0.00 90 1012.7
20260509064410 59 143 0.0 0.0 0.00 0.00 0.00 89 1012.7
20260509063900 60 143 0.0 1.0 0.00 0.00 0.00 89 1012.7
20260509063407 60 143 0.0 1.0 0.00 0.00 0.00 89 1012.7
20260509062852 60 143 0.0 1.0 0.00 0.00 0.00 89 1012.8
20260509062357 60 143 0.0 1.0 0.00 0.00 0.00 89 1012.9
20260509061903 60 141 0.0 1.0 0.00 0.00 0.00 89 1012.9
20260509061430 60 139 0.0 0.0 0.00 0.00 0.00 88 1012.8
20260509060856 60 139 0.0 0.0 0.00 0.00 0.00 88 1012.8
20260509060402 60 139 0.0 0.0 0.00 0.00 0.00 88 1012.8
20260509055906 60 139 0.0 0.0 0.00 0.00 0.00 88 1012.9
20260509055353 60 139 0.0 0.0 0.00 0.00 0.00 88 1012.8
20260509054917 60 139 0.0 0.0 0.00 0.00 0.00 87 1012.8
20260509054421 61 139 0.0 0.0 0.00 0.00 0.00 87 1012.8
20260509053905 61 139 0.0 0.0 0.00 0.00 0.00 87 1012.9
20260509053410 61 139 0.0 0.0 0.00 0.00 0.00 87 1012.9
20260509052900 61 139 0.0 0.0 0.00 0.00 0.00 87 1012.9
20260509052404 61 139 0.0 0.0 0.00 0.00 0.00 86 1012.8
20260509051910 61 139 0.0 0.0 0.00 0.00 0.00 86 1012.9
20260509051415 62 139 0.0 1.0 0.00 0.00 0.00 86 1012.9
20260509050400 62 144 0.0 1.0 0.00 0.00 0.00 85 1012.9
20260509045905 62 150 0.0 0.0 0.00 0.00 0.00 85 1012.8
20260509045351 62 149 0.0 0.0 0.00 0.00 0.00 85 1012.8
20260509044855 62 150 0.0 0.0 0.00 0.00 0.00 85 1012.8
20260509044400 62 167 0.0 0.0 0.00 0.00 0.00 84 1012.7
20260509043903 63 167 0.0 0.0 0.00 0.00 0.00 84 1012.7
20260509043409 63 167 0.0 0.0 0.00 0.00 0.00 84 1012.7
20260509042852 63 167 0.0 0.0 0.00 0.00 0.00 83 1012.6
20260509042416 63 167 0.0 0.0 0.00 0.00 0.00 83 1012.6
20260509041858 63 167 0.0 0.0 0.00 0.00 0.00 83 1012.6
20260509041405 64 167 0.0 0.0 0.00 0.00 0.00 82 1012.6
20260509040851 64 167 0.0 0.0 0.00 0.00 0.00 82 1012.5
20260509040414 64 167 0.0 0.0 0.00 0.00 0.00 82 1012.5
20260509035858 64 164 0.0 0.0 0.00 0.00 0.00 81 1012.3
20260509035401 64 164 0.0 0.0 0.00 0.00 0.00 81 1012.3
20260509034907 64 165 0.0 0.0 0.00 0.00 0.00 81 1012.3
20260509034412 65 164 0.0 0.0 0.00 0.00 0.00 80 1012.2
20260509033907 65 164 0.0 0.0 0.00 0.00 0.00 80 1012.2
20260509033353 65 165 0.0 1.0 0.00 0.00 0.00 80 1012.2
20260509032919 65 234 0.0 1.0 0.00 0.00 0.00 79 1012.1
20260509032425 66 234 0.0 1.0 0.00 0.00 0.00 79 1012.0
20260509031910 66 236 0.0 1.0 0.00 0.00 0.00 79 1012.0
20260509031415 66 220 0.0 1.0 0.00 0.00 0.00 78 1011.9
20260509030922 66 228 0.0 1.0 0.00 0.00 0.00 78 1011.9
20260509030425 66 206 0.0 1.0 0.00 0.00 0.00 77 1011.8
20260509025930 67 189 0.0 1.0 0.00 0.00 0.00 77 1011.7
20260509025355 67 231 0.0 2.0 0.00 0.00 0.00 76 1011.7
20260509024859 67 229 0.0 2.0 0.00 0.00 0.00 76 1011.7
20260509024404 67 245 0.0 2.0 0.00 0.00 0.00 75 1011.7
20260509023909 68 203 0.0 1.0 0.00 0.00 0.00 75 1011.7
20260509023353 68 158 0.0 2.0 0.00 0.00 0.00 74 1011.7
20260509022919 68 233 0.0 2.0 0.00 0.00 0.00 74 1011.6
20260509022402 69 195 0.0 3.0 0.00 0.00 0.00 73 1011.7
20260509021909 69 231 0.0 4.0 0.00 0.00 0.00 73 1011.6
20260509021356 69 221 0.0 4.0 0.00 0.00 0.00 72 1011.5
20260509020904 70 248 1.0 4.0 0.00 0.00 0.00 71 1011.5
20260509020409 70 262 0.0 3.0 0.00 0.00 0.00 70 1011.3
20260509015855 71 200 0.0 3.0 0.00 0.00 0.00 70 1011.4
20260509015401 71 201 1.0 3.0 0.00 0.00 0.00 68 1011.4
20260509014906 72 212 1.0 4.0 0.00 0.00 0.00 68 1011.3
20260509013906 73 178 1.0 4.0 0.00 0.00 0.00 66 1011.3
20260509012855 74 235 1.0 4.0 0.00 0.00 0.00 65 1011.5
20260509012403 74 244 1.0 4.0 0.00 0.00 0.00 64 1011.4
20260509011929 75 252 1.0 3.0 0.00 0.00 0.00 63 1011.3
20260509011359 75 270 1.0 5.0 0.00 0.00 0.00 62 1011.3
20260509010904 76 188 1.0 5.0 0.00 0.00 0.00 62 1011.3
20260509010410 76 205 1.0 3.0 0.00 0.00 0.00 62 1011.2
20260509005914 76 198 1.0 4.0 0.00 0.00 0.00 62 1011.2
20260509005357 76 257 2.0 4.0 0.00 0.00 0.00 61 1011.2
20260509004418 77 173 2.0 4.0 0.00 0.00 0.00 61 1011.2
20260509003902 77 248 2.0 4.0 0.00 0.00 0.00 61 1011.3
20260509003406 77 275 2.0 4.0 0.00 0.00 0.00 60 1011.2
20260509002933 78 171 2.0 4.0 0.00 0.00 0.00 60 1011.3
20260509001856 78 217 2.0 5.0 0.00 0.00 0.00 60 1011.1
20260509001359 77 153 2.0 5.0 0.00 0.00 0.00 60 1011.1
20260509000904 78 172 2.0 5.0 0.00 0.00 0.00 60 1011.2
20260509000352 78 153 2.0 6.0 0.00 0.00 0.00 60 1011.2
20260508235856 78 148 2.0 7.0 0.00 0.00 0.00 60 1011.2
20260508234406 78 202 2.0 4.0 0.00 0.00 0.00 60 1011.2
20260508233851 78 262 2.0 5.0 0.00 0.00 0.00 60 1011.3
20260508233416 78 257 1.0 6.0 0.00 0.00 0.00 61 1011.4
20260508232900 78 136 1.0 7.0 0.00 0.00 0.00 59 1011.3
20260508232405 78 239 2.0 7.0 0.00 0.00 0.00 59 1011.4
20260508231910 79 202 2.0 8.0 0.00 0.00 0.00 59 1011.4
20260508231354 79 195 3.0 8.0 0.00 0.00 0.00 58 1011.5